Preview of NWS' New Version of Forecast
This preview is not operational and should not be used for support decisions.

Regional Weather Roundup (RWR)

Issued by National Weather Service (NWS)

                            
000
ASUS44 KMEG 220310
RWRTN 
TENNESSEE HOURLY STATE WEATHER ROUNDUP
NATIONAL WEATHER SERVICE MEMPHIS TN
1000 PM CDT SAT SEP 21 2019

TNZ002-004-019-021-049-052-054-088>092-220400-
WEST TENNESSEE
  
CITY           SKY/WX    TMP DP  RH WIND       PRES   REMARKS
MEMPHIS INTL   FAIR      79  60  52 S10       30.12S                  
NWS MEMPHIS      N/A     75 N/A N/A MISG        N/A                   
JACKSON        FAIR      67  61  81 CALM      30.15S                  
DYERSBURG      FAIR      75  61  61 SE5       30.14S                  
SOMERVILLE     CLEAR     73  61  64 SE3       30.13S                  
UNION CITY       N/A     70  61  73 SE6       30.11F                  
BOLIVAR        PTCLDY    66  63  88 CALM      30.14F                  
PARIS          CLEAR     70  57  64 S7        30.15S                  
HUNTINGDON     CLEAR     70  61  73 CALM      30.15S                  
LEXINGTON      CLEAR     66  63  88 CALM      30.15S                  
SELMER         CLEAR     68  61  77 S5        30.15S                  
SAVANNAH       PTCLDY    66  64  94 CALM      30.16S                  
$$

TNZ008-025-027-028-033-062-065-066-220400-
NORTH MIDDLE TENNESSEE
  
CITY           SKY/WX    TMP DP  RH WIND       PRES   REMARKS
NASHVILLE      FAIR      74  55  51 S5        30.17S                  
DICKSON        CLEAR     72  55  56 SW6       30.17S                  
PORTLAND       CLEAR     66  61  82 S6        30.17S                  
CLARKSVILLE    FAIR      71  60  68 CALM      30.15S                  
LEBANON        PTCLDY    68  55  64 CALM      30.16S                  
SMYRNA         FAIR      68  59  73 SE5       30.18S                  
MURFREESBORO   PTCLDY    72  57  60 CALM      30.16S                  
COOKEVILLE     CLEAR     59  55  88 CALM      30.20F                  
LIVINGSTON       N/A     73  55  53 SW5       30.21S                  
CROSSVILLE     FAIR      64  56  75 CALM      30.27S                  
ROCKWOOD       CLEAR     66  55  68 CALM      30.25S                  
$$

TNZ061-075-076-078-094-096-097-220400-
SOUTH MIDDLE TENNESSEE
  
CITY           SKY/WX    TMP DP  RH WIND       PRES   REMARKS
LAWRENCEBURG   MOCLDY    64  57  77 CALM      30.19R                  
LEWISBURG      CLEAR     64  57  77 S5        30.18S                  
FAYETTEVILLE   CLEAR     72  55  56 CALM      30.20S                  
TULLAHOMA      CLEAR     64  57  77 CALM      30.20F                  
WINCHESTER     CLEAR     68  55  64 SE5       30.21S                  
MCMINNVILLE    CLEAR     64  57  77 CALM      30.21S                  
COLUMBIA       CLEAR     66  63  88 S5        30.16S                  
SHELBYVILLE    CLEAR     68  59  73 E7        30.19S                  
$$

TNZ017-018-042-046-047-220400-
NORTHEAST TENNESSEE
  
CITY           SKY/WX    TMP DP  RH WIND       PRES   REMARKS
TRI CITIES     FAIR      66  60  81 CALM      30.26R                  
ELIZABETHTON   FAIR      70  61  73 CALM      30.27R                  
GREENEVILLE    CLEAR     72  59  64 CALM      30.25S                  
$$

TNZ012-013-036-069-073-074-220400-
CENTRAL EAST TENNESSEE
  
CITY           SKY/WX    TMP DP  RH WIND       PRES   REMARKS
KNOXVILLE      FAIR      73  61  65 SW6       30.22R                  
OAK RIDGE      FAIR      70  61  73 CALM      30.23S                  
DOWNTOWN KNOXV CLOUDY    70  66  88 CALM      30.22S                  
GATLINBURG     CLOUDY    73  64  73 CALM      30.22S                  
MORRISTOWN     PTCLDY    70  61  73 CALM      30.23S                  
JACKSBORO      CLEAR     66  63  88 CALM      30.26S                  
$$

TNZ083-085-099-220400-
SOUTHEAST TENNESSEE
  
CITY           SKY/WX    TMP DP  RH WIND       PRES   REMARKS
CHATTANOOGA    FAIR      74  59  59 CALM      30.22R                  
$$

SKY/WX REPORTED AS FAIR MEANS FEW OR NO CLOUDS BELOW
12 THOUSAND FEET.